TIME,DELAY(SENSOR),PRES,OXYGEN,RAWTEMP,T(OPTODE),TCPHASE,FLUOR,BETA(BETA700),BETA(BETA412),BETA(BETA440),CDOM,C(CSC),ED(ED412.20),ED(ED444.00),ED(ED489.60),ED(ED554.30),LU(LU412.10),LU(LU443.90),LU(LU489.70),LU(LU554.70),COMP,TILTX,TILTY,CHECK
1341807060,5808,891.3099975585938000,38.9480590820312500,559.8302001953125000,4.4911580085754395,55.6641197204589840,55,102,102,78,82,15560,0,0,0,0,2147121426,2147771730,2147578340,2147571227,1597,3,13,17131
1341810656,5809,960.7500000000000000,43.2287712097168000,568.6192016601562000,4.2184619903564450,55.1274604797363300,56,99,101,79,82,15561,0,0,0,0,2147121060,2147776548,2147576256,2147571840,782,3,13,43758
1341814256,5808,981.3900146484375000,43.6345291137695300,570.5759277343750000,4.1576647758483890,55.0904197692871100,56,101,101,78,83,15557,0,0,0,0,2147123346,2147779044,2147574272,2147568630,467,3,13,26289
1341817856,5808,994.7299804687500000,43.2793884277343750,570.6256713867188000,4.1561150550842285,55.1420593261718750,55,114,101,78,83,15551,0,0,0,0,2147124105,2147780233,2147573540,2147570898,182,3,13,1480
1341821456,5807,994.7199707031250000,42.6581306457519500,569.7454223632812000,4.1834721565246580,55.2180900573730500,56,100,101,79,83,15550,0,0,0,0,2147124169,2147775954,2147572900,2147569362,104,3,13,10411
1341825056,5808,1004.7000122070312000,42.4262886047363300,569.2255249023438000,4.1996269226074220,55.2514610290527340,55,100,100,78,83,15549,0,0,0,0,2147123300,2147778020,2147575826,2147570258,505,3,13,20298
1341828656,5808,1007.7800292968750000,42.1093292236328100,568.8029174804688000,4.2127552032470700,55.2931404113769500,55,99,101,78,83,15540,0,0,0,0,2147122907,2147780187,2147579538,2147568438,3582,3,13,44848
1341832256,5810,1003.5900268554688000,42.1605796813964840,569.5679931640625000,4.1889839172363280,55.2923202514648440,56,99,101,79,83,15548,0,0,0,0,2147122029,2147777289,2147573101,2147571721,218,3,13,61542
1341835856,5809,1009.2199707031250000,42.0876083374023440,569.4010009765625000,4.1941738128662110,55.2992095947265600,56,99,101,78,83,15548,0,0,0,0,2147123730,2147777618,2147575899,2147569408,124,3,13,1167
1341839456,5810,1006.6699829101562000,41.9775505065918000,570.1124877929688000,4.1720638275146480,55.3217697143554700,55,102,101,78,82,15544,0,0,0,0,2147121718,2147776484,2147575881,2147569334,3347,3,13,31702
1341843056,5812,1010.3300170898438000,42.1246299743652340,570.1785888671875000,4.1700100898742680,55.3003082275390600,56,102,102,79,84,15545,0,0,0,0,2147122523,2147775460,2147580077,2147570889,3242,3,13,51288
1341846656,5813,1011.1699829101562000,41.7075691223144500,569.7617187500000000,4.1829638481140140,55.3641395568847660,55,100,104,79,83,15541,0,0,0,0,2147124242,2147776749,2147574628,2147573430,89,3,13,46957
1341850256,5810,1008.8800048828125000,41.7748184204101560,570.8082275390625000,4.1504421234130860,55.3601684570312500,56,100,101,77,83,15545,0,0,0,0,2147120374,2147773641,2147574793,2147573531,361,3,13,13558
1341853856,5811,1006.7100219726562000,42.1813316345214840,571.8696289062500000,4.1174468994140625,55.3141517639160160,55,99,101,78,83,15546,0,0,0,0,2147120722,2147769764,2147577508,2147567378,603,3,13,31095
1341857456,5810,1014.1300048828125000,43.1270103454589840,571.1425170898438000,4.1400508880615230,55.1693191528320300,55,99,101,79,83,15544,0,0,0,0,2147121014,2147777572,2147577901,2147572306,3072,3,13,20936
1341861056,5810,1013.0700073242188000,42.9755706787109400,570.9254150390625000,4.1468009948730470,55.1831283569335940,55,99,102,78,83,15541,0,0,0,0,2147120905,2147781120,2147571657,2147567488,386,3,13,65006
1341864656,5810,1021.8599853515625000,42.4277114868164060,570.2078247070312000,4.1691021919250490,55.2612609863281250,54,101,101,77,84,15547,0,0,0,0,2147121088,2147774116,2147575232,2147572992,2914,3,13,36335
1341868256,5810,1022.4099731445312000,42.1588783264160160,569.6564941406250000,4.1862349510192870,55.2944297790527340,54,102,101,78,82,15543,0,0,0,0,2147124644,2147776292,2147573796,2147574080,3487,3,13,9347
1341871856,5810,1018.6799926757812000,41.9126281738281250,569.6240234375000000,4.1872458457946780,55.3265495300293000,55,101,101,80,83,15547,0,0,0,0,2147122660,2147775899,2147575350,2147569746,19,3,13,58884
1341875456,5809,1017.4500122070312000,42.0791282653808600,570.0640869140625000,4.1735668182373050,55.3105392456054700,56,100,101,79,84,15545,0,0,0,0,2147123894,2147775177,2147574902,2147573805,680,3,13,9239
1341879056,5810,1017.3400268554688000,41.8182487487793000,569.4901733398438000,4.1914019584655760,55.3391304016113300,54,100,101,77,84,15536,0,0,0,0,2147120804,2147772388,2147576045,2147569664,97,3,13,64582
1341882656,5810,1016.8699951171875000,42.4443893432617200,570.7517089843750000,4.1521987915039060,55.2609710693359400,55,100,102,78,83,15518,0,0,0,0,2147123894,2147772324,2147575058,2147571081,3372,3,13,701
1341886256,5809,1012.2899780273438000,42.8843307495117200,571.8590087890625000,4.1177768707275390,55.2127799987793000,55,100,101,78,83,15516,0,0,0,0,2147122093,2147776822,2147569901,2147573357,714,3,13,28519
1341889856,5813,1009.9899902343750000,43.3472595214843750,573.0737915039062000,4.0799999237060550,55.1550483703613300,55,102,109,78,83,15515,0,0,0,0,2147124946,2147779154,2147572333,2147570541,3318,3,13,27808
1341893456,5808,1013.0700073242188000,42.5305480957031250,572.3134765625000000,4.1036448478698730,55.2696609497070300,55,100,101,80,84,15512,0,0,0,0,2147121417,2147772397,2147576384,2147572946,578,3,13,37791
1341897056,5811,1007.3699951171875000,42.9375000000000000,573.7125854492188000,4.0601329803466800,55.2225494384765600,55,100,101,78,83,15515,0,0,0,0,2147123053,2147777371,2147580196,2147570742,380,3,13,15568
1341900656,5808,1012.5900268554688000,43.8578491210937500,573.9533081054688000,4.0526428222656250,55.0965003967285160,54,98,102,78,83,15513,0,0,0,0,2147121901,2147777901,2147573796,2147572306,3576,3,13,56521
1341904256,5809,1014.8499755859375000,43.1722106933593750,572.4959106445312000,4.0979728698730470,55.1778182983398440,55,99,102,78,84,15512,0,0,0,0,2147125156,2147776868,2147571803,2147570166,191,3,13,11413
1341907856,5810,1022.7800292968750000,42.2867813110351560,570.3209228515625000,4.1655879020690920,55.2779197692871100,55,100,102,79,83,15541,0,0,0,0,2147121956,2147771556,2147574637,2147570313,38,3,13,50367
1341911456,5809,1017.7700195312500000,41.3791389465332000,569.7382202148438000,4.1836972236633300,55.4071693420410160,55,100,102,80,83,15540,0,0,0,0,2147122011,2147772452,2147573147,2147571675,3130,3,13,49336
1341915056,5810,1018.8599853515625000,41.1185417175293000,570.2542114257812000,4.1676640510559080,55.4492988586425800,55,100,101,79,84,15542,0,0,0,0,2147125129,2147775314,2147570669,2147573046,70,3,13,57492
1341918656,5811,1018.2800292968750000,41.7042808532714840,569.7144165039062000,4.1844348907470700,55.3576011657714840,56,110,102,78,83,15540,0,0,0,0,2147123611,2147772278,2147574153,2147572598,55,3,13,28670
1341922256,5811,1015.4600219726562000,41.0470886230468750,570.2744140625000000,4.1670341491699220,55.4638404846191400,56,104,101,78,83,15541,0,0,0,0,2147121362,2147767606,2147576228,2147569755,9,3,13,19425
1341925856,5807,1019.1199951171875000,42.3925285339355500,570.8054809570312000,4.1505279541015625,55.2738304138183600,55,101,101,79,84,15540,0,0,0,0,2147119817,2147771346,2147573860,2147569682,122,3,13,4572
1341929456,5808,1013.7199707031250000,42.3834114074707000,571.6290893554688000,4.1249241828918460,55.2823600769043000,57,102,101,79,84,15539,0,0,0,0,2147122505,2147771785,2147574354,2147569499,413,3,13,9144
1341933056,5810,1008.0200195312500000,41.9071617126464840,572.1815185546875000,4.1077499389648440,55.3549308776855500,55,101,102,78,83,15539,0,0,0,0,2147122806,2147769097,2147571684,2147568128,256,3,13,3680
1341936656,5808,1010.4199829101562000,42.8511505126953100,573.3032226562500000,4.0728650093078610,55.2324104309082000,55,100,100,78,83,15537,0,0,0,0,2147122742,2147772918,2147571684,2147570953,275,3,13,42355
1341940256,5811,1014.2000122070312000,43.0679817199707000,572.5429077148438000,4.0965118408203125,55.1893692016601560,56,102,101,78,82,15536,0,0,0,0,2147120210,2147773933,2147575396,2147572041,81,3,13,36726
1341943856,5809,1019.0499877929688000,42.6239204406738300,572.7965698242188000,4.0886211395263670,55.2586593627929700,56,98,102,79,83,15533,0,0,0,0,2147123968,2147776064,2147574966,2147569298,116,3,13,51341
1341947456,5810,1023.8900146484375000,43.0200119018554700,571.8740234375000000,4.1173110008239750,55.1894683837890600,55,100,101,78,83,15536,0,0,0,0,2147125037,2147772653,2147573449,2147569453,3566,2,13,61227
1341948356,5808,1023.8900146484375000,42.4424209594726560,571.5394897460938000,4.1277098655700680,55.2709808349609400,55,101,101,79,83,15535,0,0,0,0,2147125869,2147772672,2147575844,2147567533,364,3,13,5552
